Вернуться в каталог

SL-8 DEB

АктивенLEO
NORAD 21209·DEBRIS·🇷🇺 Russia

Запущен Feb 12, 1991 с Plesetsk Cosmodrome

Loading…

Ближайшие Пролёты (ближайшие 24 часа)

TLE

СвежийSource: Space-Track

Эпоха: Sep 14, 2026, 14:09 UTC

1 21209U 91009BC  26257.58980653  .00000021  00000-0  31725-3 0  9993
2 21209  74.0401 319.2220 0134280  22.5554  46.6762 12.23761969584231

Отслеживайте SL-8 DEB в реальном времени с AllMySat

Download on the App Store